Terminal Aerodrome Forecast
Issued by NWS Dallas/Fort Worth, TX

Home | Current Version | Previous Version | Text Only | Print | Product List | Glossary On
Versions: 1 2 3 4 5 6 7 8 9 10 11 12 13 14 15 16 17 18 19 20 21 22 23 24 25 26 27 28
000
FTUS44 KFWD 030520
TAFACT
TAF
KACT 030520Z 0306/0406 18010KT P6SM FEW050 SCT150 BKN250
     FM030900 19010KT P6SM BKN020
     FM031500 19013KT P6SM BKN035
     FM031700 19012KT P6SM BKN040=

USA.gov is the U.S. government's official web portal to all federal, state and local government web resources and services.